Regional Weather Roundup
Issued by NWS Albany, NY

Home | Current Version | Previous Version | Graphics & Text | Print | Product List | Glossary Off
Versions: 1 2 3 4 5 6 7 8 9 10 11 12 13 14 15 16 17 18 19 20 21 22 23 24 25 26 27 28 29 30 31 32 33 34 35 36 37 38 39 40 41 42 43 44 45 46 47 48 49 50

742
ASUS41 KALY 250510
RWRALY

NEW YORK STATE HOURLY WEATHER ROUNDUP
NATIONAL WEATHER SERVICE ALBANY NY
100 AM EDT SUN JUN 25 2017

NOTE: "FAIR" INDICATES FEW OR NO CLOUDS BELOW 12,000 FEET WITH NO
SIGNIFICANT WEATHER AND/OR NO OBSTRUCTIONS TO VISIBILITY.

NYZ032-033-038>043-046>054-057>066-NYZ062>081-082-084-250600-
EAST


CITY           SKY/WX    TMP DP  RH WIND       PRES   REMARKS
ALBANY         PTCLDY    65  54  67 W5        29.92R
GLENS FALLS    NOT AVBL
POUGHKEEPSIE   CLOUDY    67  64  90 CALM      29.91F
NEWBURGH       MOCLDY    66  66 100 CALM      29.95S
MONTGOMERY     CLOUDY    67  61  81 NW3       29.93S
WHITE PLAINS   PTCLDY    72  57  60 NW9       29.92S
ISLIP          CLEAR     72  62  71 W10       29.91R
NEW YORK CITY  PTCLDY    75  62  64 NW8       29.91R
CENTRAL PARK   CLEAR     75  58  55 VRB3      29.95R
$$

NYZ005>009-017-018-044>046-055-056-250600-
CENTRAL


CITY           SKY/WX    TMP DP  RH WIND       PRES   REMARKS
FULTON         CLEAR     60  56  86 W6        29.92R
SYRACUSE       PTCLDY    62  56  80 W8        29.91S
ROME           CLEAR     56  55  97 CALM      29.93R
ELMIRA         NOT AVBL
BINGHAMTON     NOT AVBL
MONTICELLO     CLEAR     61  61 100 NW3       29.98S
$$

NYZ026>034-041>043-087-250600-
NORTH


CITY           SKY/WX    TMP DP  RH WIND       PRES   REMARKS
WATERTOWN      CLEAR     60  58  92 S3        29.89R
FORT DRUM      NOT AVBL
OGDENSBURG     FAIR      58  56  95 CALM      29.88R
MASSENA        MOCLDY    59  58  96 SW5       29.87S
SARANAC LAKE   MOCLDY    54  52  93 S5        29.89R
PLATTSBURGH    CLOUDY    62  55  77 S6        29.84S
$$

NYZ001>004-010>016-019>021-085-250600-
WEST


CITY           SKY/WX    TMP DP  RH WIND       PRES   REMARKS
NIAGARA FALLS  CLOUDY    65  55  70 SW3       29.93R
BUFFALO        CLOUDY    65  52  62 SW8       29.94R
DUNKIRK        PTCLDY    58  55  90 S7        29.96R
JAMESTOWN      CLEAR     57  52  82 SW6       30.00S
WELLSVILLE     PTCLDY    60  49  66 W6        30.01S
ROCHESTER      PTCLDY    58  55  90 SW5       29.94R
PENN YAN       CLEAR     59  54  83 S5        29.95F
$$

             KEY
       WCI = WIND CHILL INDEX
       VSB = VISIBILITY
       HX  = HEAT INDEX
$$




USA.gov is the U.S. government's official web portal to all federal, state and local government web resources and services.